User: anonymous   Login
Location: Holmes Observatory
(37.1039°N, 122.0513°W)
Time: 09:49:20
(UTC-07:00)
Language:

Cosmos 921 Rocket - Orbit

View from above orbital plane
View from above orbital plane
View from above satellite
View from above satellite

Ground track
Ground track

The orbit data is extracted from the following two-line orbital elements,

1 10096U 77055B   16180.22661913  .00000040  00000-0  63865-5 0  9993
2 10096  75.8351 268.2621 0042711  27.4717 332.8718 14.88473863109584
Epoch (UTC): 28 June 2016 05:26:19
Eccentricity: 0.0042711
inclination: 75.8351°
perigee height: 573 km
apogee height: 632 km
right ascension of ascending node: 268.2621°
argument of perigee: 27.4717°
revolutions per day: 14.88473863
mean anomaly at epoch: 332.8718°
orbit number at epoch: 10958

The dashed part of the orbit path shows where the satellite is in the earth's shadow,  

DLR